Multibeam Report for NBP1003


Ship Name: Nathaniel B. Palmer
Chief Scientist: Nowacek, Douglas
Duke University
Source Organization: Marine Geoscience Data System (MGDS)
Start Date: 2010-05-07
End Date: 2010-06-11


View ISO Metadata

Visit the full NCEI Bathymetry Viewer


Multibeam Bathymetry

Cruise Details

Project: Collaborative Research: The Ecological Role of a Poorly Studied Antarctic Krill Predator: The Humpback Whale, Megaptera Novaeangliae
Instrument: Kongsberg EM120

Data Quality

Number of Files: 380
Number of Records: 540669
BATHYMETRY DATA Quantity Percentage
Number of Beams 103267779 100%
Number of Good Beams 90366519 87.51%
Number of Zero Beams 12901260 12.49%
Number of Flagged Beams 0 0%
AMPLITUDE DATA Quantity Percentage
Number of Beams 103267779 100%
Number of Good Beams 90366519 87.51%
Number of Zero Beams 12901260 12.49%
Number of Flagged Beams 0 0%
SIDESCAN DATA Quantity Percentage
Number of Pixels 553645056 100%
Number of Good Pixels 346125751 62.52%
Number of Zero Pixels 0 0%
Number of Flagged Pixels 207519305 37.48%

Navigation Totals

Total Time: 344.8574 hours
Total Track Length: 3357.0844 km
Average Speed: 9.735 km/hr (5.2565 knots)

Cruise Bounds

Northern Extent: -55.27928
Southern Extent: -65.122025
Western Extent: -64.86081
Eastern Extent: -59.208332

Limits

Minimum Sonar Depth 5.03 Maximum Sonar Depth 8.6
Minimum Altitude 0 Maximum Altitude 6646.8799
Minimum Depth 32.79 Maximum Depth 6831.25
Minimum Amplitude 0 Maximum Amplitude 21.5
Minimum Sidescan 0 Maximum Sidescan 63

File Information

Full Resolution Bathymetry as collected (raw): 377

Files File Size Description
0001_20100508_222936_raw.all.mb56.gz 9.60MB Simrad multibeam vendor format
0002_20100508_232936_raw.all.mb56.gz 8.72MB Simrad multibeam vendor format
0003_20100509_002936_raw.all.mb56.gz 8.67MB Simrad multibeam vendor format
0004_20100509_012936_raw.all.mb56.gz 8.78MB Simrad multibeam vendor format
0005_20100509_022936_raw.all.mb56.gz 8.92MB Simrad multibeam vendor format
0006_20100509_032936_raw.all.mb56.gz 8.62MB Simrad multibeam vendor format
0007_20100509_042936_raw.all.mb56.gz 8.61MB Simrad multibeam vendor format
0008_20100509_052936_raw.all.mb56.gz 9.08MB Simrad multibeam vendor format
0009_20100509_062936_raw.all.mb56.gz 8.82MB Simrad multibeam vendor format
0010_20100509_072936_raw.all.mb56.gz 8.53MB Simrad multibeam vendor format
0011_20100509_082936_raw.all.mb56.gz 8.57MB Simrad multibeam vendor format
0012_20100509_092936_raw.all.mb56.gz 8.64MB Simrad multibeam vendor format
0013_20100509_102936_raw.all.mb56.gz 8.76MB Simrad multibeam vendor format
0014_20100509_112936_raw.all.mb56.gz 8.71MB Simrad multibeam vendor format
0015_20100509_122936_raw.all.mb56.gz 4.30MB Simrad multibeam vendor format
0016_20100509_130006_raw.all.mb56.gz 136.0KB Simrad multibeam vendor format
0017_20100509_130104_raw.all.mb56.gz 8.57MB Simrad multibeam vendor format
0018_20100509_140104_raw.all.mb56.gz 8.66MB Simrad multibeam vendor format
0019_20100509_150104_raw.all.mb56.gz 8.77MB Simrad multibeam vendor format
0020_20100509_160104_raw.all.mb56.gz 8.97MB Simrad multibeam vendor format
0021_20100509_170104_raw.all.mb56.gz 2.49MB Simrad multibeam vendor format
0022_20100509_171721_raw.all.mb56.gz 8.79MB Simrad multibeam vendor format
0023_20100509_181722_raw.all.mb56.gz 8.92MB Simrad multibeam vendor format
0024_20100509_191721_raw.all.mb56.gz 8.71MB Simrad multibeam vendor format
0025_20100509_201721_raw.all.mb56.gz 8.80MB Simrad multibeam vendor format
0026_20100509_211721_raw.all.mb56.gz 8.65MB Simrad multibeam vendor format
0027_20100509_221721_raw.all.mb56.gz 8.61MB Simrad multibeam vendor format
0028_20100509_231721_raw.all.mb56.gz 8.71MB Simrad multibeam vendor format
0029_20100510_001721_raw.all.mb56.gz 8.59MB Simrad multibeam vendor format
0030_20100510_011721_raw.all.mb56.gz 8.62MB Simrad multibeam vendor format
0031_20100510_021721_raw.all.mb56.gz 8.52MB Simrad multibeam vendor format
0032_20100510_031721_raw.all.mb56.gz 8.63MB Simrad multibeam vendor format
0033_20100510_041721_raw.all.mb56.gz 8.76MB Simrad multibeam vendor format
0034_20100510_051721_raw.all.mb56.gz 8.71MB Simrad multibeam vendor format
0035_20100510_061721_raw.all.mb56.gz 8.72MB Simrad multibeam vendor format
0036_20100510_071721_raw.all.mb56.gz 8.00MB Simrad multibeam vendor format
0037_20100510_081721_raw.all.mb56.gz 8.59MB Simrad multibeam vendor format
0038_20100510_091721_raw.all.mb56.gz 8.57MB Simrad multibeam vendor format
0039_20100510_101721_raw.all.mb56.gz 8.59MB Simrad multibeam vendor format
0040_20100510_111721_raw.all.mb56.gz 4.39MB Simrad multibeam vendor format
0041_20100510_114901_raw.all.mb56.gz 8.61MB Simrad multibeam vendor format
0042_20100510_124901_raw.all.mb56.gz 8.90MB Simrad multibeam vendor format
0043_20100510_134901_raw.all.mb56.gz 10.61MB Simrad multibeam vendor format
0044_20100510_144901_raw.all.mb56.gz 19.35MB Simrad multibeam vendor format
0045_20100510_154901_raw.all.mb56.gz 29.93MB Simrad multibeam vendor format
0046_20100510_164901_raw.all.mb56.gz 34.89MB Simrad multibeam vendor format
0047_20100510_174901_raw.all.mb56.gz 10.37MB Simrad multibeam vendor format
0048_20100510_181831_raw.all.mb56.gz 19.09MB Simrad multibeam vendor format
0049_20100510_191831_raw.all.mb56.gz 12.73MB Simrad multibeam vendor format
0050_20100510_201831_raw.all.mb56.gz 8.56MB Simrad multibeam vendor format
0051_20100510_210115_raw.all.mb56.gz 13.17MB Simrad multibeam vendor format
0052_20100510_220115_raw.all.mb56.gz 13.99MB Simrad multibeam vendor format
0053_20100510_230115_raw.all.mb56.gz 14.51MB Simrad multibeam vendor format
0054_20100511_000115_raw.all.mb56.gz 16.43MB Simrad multibeam vendor format
0055_20100511_010115_raw.all.mb56.gz 18.15MB Simrad multibeam vendor format
0056_20100511_020115_raw.all.mb56.gz 18.17MB Simrad multibeam vendor format
0057_20100511_030115_raw.all.mb56.gz 19.71MB Simrad multibeam vendor format
0058_20100511_040115_raw.all.mb56.gz 17.78MB Simrad multibeam vendor format
0059_20100511_050115_raw.all.mb56.gz 13.30MB Simrad multibeam vendor format
0060_20100511_060115_raw.all.mb56.gz 12.97MB Simrad multibeam vendor format
0061_20100511_070115_raw.all.mb56.gz 13.89MB Simrad multibeam vendor format
0062_20100511_080115_raw.all.mb56.gz 12.29MB Simrad multibeam vendor format
0063_20100511_090115_raw.all.mb56.gz 13.94MB Simrad multibeam vendor format
0064_20100511_100115_raw.all.mb56.gz 15.36MB Simrad multibeam vendor format
0065_20100511_110115_raw.all.mb56.gz 16.32MB Simrad multibeam vendor format
0066_20100511_120115_raw.all.mb56.gz 3.90MB Simrad multibeam vendor format
0067_20100511_121420_raw.all.mb56.gz 20.29MB Simrad multibeam vendor format
0068_20100511_131420_raw.all.mb56.gz 23.56MB Simrad multibeam vendor format
0069_20100511_142311_raw.all.mb56.gz 35.87MB Simrad multibeam vendor format
0070_20100511_221044_raw.all.mb56.gz 25.66MB Simrad multibeam vendor format
0071_20100511_231044_raw.all.mb56.gz 20.70MB Simrad multibeam vendor format
0072_20100512_001044_raw.all.mb56.gz 22.10MB Simrad multibeam vendor format
0073_20100512_011044_raw.all.mb56.gz 20.96MB Simrad multibeam vendor format
0074_20100512_021044_raw.all.mb56.gz 23.36MB Simrad multibeam vendor format
0075_20100512_031044_raw.all.mb56.gz 18.11MB Simrad multibeam vendor format
0076_20100512_041044_raw.all.mb56.gz 18.22MB Simrad multibeam vendor format
0077_20100512_051044_raw.all.mb56.gz 17.89MB Simrad multibeam vendor format
0078_20100512_061044_raw.all.mb56.gz 18.59MB Simrad multibeam vendor format
0079_20100512_071044_raw.all.mb56.gz 19.08MB Simrad multibeam vendor format
0080_20100512_081044_raw.all.mb56.gz 17.69MB Simrad multibeam vendor format
0081_20100512_091044_raw.all.mb56.gz 18.57MB Simrad multibeam vendor format
0082_20100512_101044_raw.all.mb56.gz 17.52MB Simrad multibeam vendor format
0083_20100512_111044_raw.all.mb56.gz 6.69MB Simrad multibeam vendor format
0084_20100514_202722_raw.all.mb56.gz 17.05MB Simrad multibeam vendor format
0085_20100514_212722_raw.all.mb56.gz 3.09MB Simrad multibeam vendor format
0086_20100514_234232_raw.all.mb56.gz 17.47MB Simrad multibeam vendor format
0087_20100515_004232_raw.all.mb56.gz 17.23MB Simrad multibeam vendor format
0088_20100515_014232_raw.all.mb56.gz 17.12MB Simrad multibeam vendor format
0089_20100515_024232_raw.all.mb56.gz 17.06MB Simrad multibeam vendor format
0090_20100515_034232_raw.all.mb56.gz 16.14MB Simrad multibeam vendor format
0091_20100515_044232_raw.all.mb56.gz 19.60MB Simrad multibeam vendor format
0092_20100515_054232_raw.all.mb56.gz 17.77MB Simrad multibeam vendor format
0093_20100515_064232_raw.all.mb56.gz 17.43MB Simrad multibeam vendor format
0094_20100515_074232_raw.all.mb56.gz 18.69MB Simrad multibeam vendor format
0095_20100515_084232_raw.all.mb56.gz 17.10MB Simrad multibeam vendor format
0096_20100515_094232_raw.all.mb56.gz 17.34MB Simrad multibeam vendor format
0097_20100515_104232_raw.all.mb56.gz 5.21MB Simrad multibeam vendor format
0098_20100515_112851_raw.all.mb56.gz 10.94MB Simrad multibeam vendor format
0099_20100515_123723_raw.all.mb56.gz 17.04MB Simrad multibeam vendor format
0100_20100515_133723_raw.all.mb56.gz 17.23MB Simrad multibeam vendor format
0101_20100515_175945_raw.all.mb56.gz 17.36MB Simrad multibeam vendor format
0102_20100515_185945_raw.all.mb56.gz 14.52MB Simrad multibeam vendor format
0103_20100515_195945_raw.all.mb56.gz 15.53MB Simrad multibeam vendor format
0104_20100515_205945_raw.all.mb56.gz 17.21MB Simrad multibeam vendor format
0105_20100515_215945_raw.all.mb56.gz 4.68MB Simrad multibeam vendor format
0106_20100515_221415_raw.all.mb56.gz 20.49MB Simrad multibeam vendor format
0107_20100515_231415_raw.all.mb56.gz 20.99MB Simrad multibeam vendor format
0108_20100516_001415_raw.all.mb56.gz 20.50MB Simrad multibeam vendor format
0109_20100516_011415_raw.all.mb56.gz 20.83MB Simrad multibeam vendor format
0110_20100516_021415_raw.all.mb56.gz 20.58MB Simrad multibeam vendor format
0111_20100516_031415_raw.all.mb56.gz 20.75MB Simrad multibeam vendor format
0112_20100516_041415_raw.all.mb56.gz 20.15MB Simrad multibeam vendor format
0113_20100516_051415_raw.all.mb56.gz 21.04MB Simrad multibeam vendor format
0114_20100516_061415_raw.all.mb56.gz 21.40MB Simrad multibeam vendor format
0115_20100516_071415_raw.all.mb56.gz 20.34MB Simrad multibeam vendor format
0116_20100516_081415_raw.all.mb56.gz 20.33MB Simrad multibeam vendor format
0117_20100516_091415_raw.all.mb56.gz 20.29MB Simrad multibeam vendor format
0118_20100516_101415_raw.all.mb56.gz 20.44MB Simrad multibeam vendor format
0119_20100516_111415_raw.all.mb56.gz 16.35MB Simrad multibeam vendor format
0120_20100516_120222_raw.all.mb56.gz 19.08MB Simrad multibeam vendor format
0121_20100516_130222_raw.all.mb56.gz 20.30MB Simrad multibeam vendor format
0122_20100516_140222_raw.all.mb56.gz 2.93MB Simrad multibeam vendor format
0123_20100517_121712_raw.all.mb56.gz 10.50MB Simrad multibeam vendor format
0124_20100518_052734_raw.all.mb56.gz 21.88MB Simrad multibeam vendor format
0125_20100518_062734_raw.all.mb56.gz 18.78MB Simrad multibeam vendor format
0126_20100518_072734_raw.all.mb56.gz 21.19MB Simrad multibeam vendor format
0127_20100518_082734_raw.all.mb56.gz 20.24MB Simrad multibeam vendor format
0128_20100518_092734_raw.all.mb56.gz 17.10MB Simrad multibeam vendor format
0129_20100518_102734_raw.all.mb56.gz 18.88MB Simrad multibeam vendor format
0130_20100518_112734_raw.all.mb56.gz 9.87MB Simrad multibeam vendor format
0131_20100518_192935_raw.all.mb56.gz 504.4KB Simrad multibeam vendor format
0132_20100518_193057_raw.all.mb56.gz 21.35MB Simrad multibeam vendor format
0133_20100518_203057_raw.all.mb56.gz 15.77MB Simrad multibeam vendor format
0134_20100520_175631_raw.all.mb56.gz 0.87MB Simrad multibeam vendor format
0135_20100520_175910_raw.all.mb56.gz 312.9KB Simrad multibeam vendor format
0136_20100520_180004_raw.all.mb56.gz 21.76MB Simrad multibeam vendor format
0137_20100520_190004_raw.all.mb56.gz 8.98MB Simrad multibeam vendor format
0138_20100520_202447_raw.all.mb56.gz 18.17MB Simrad multibeam vendor format
0139_20100520_212447_raw.all.mb56.gz 2.20MB Simrad multibeam vendor format
0140_20100521_033614_raw.all.mb56.gz 12.14MB Simrad multibeam vendor format
0141_20100521_060923_raw.all.mb56.gz 20.49MB Simrad multibeam vendor format
0142_20100521_070923_raw.all.mb56.gz 17.09MB Simrad multibeam vendor format
0143_20100521_080923_raw.all.mb56.gz 7.03MB Simrad multibeam vendor format
0144_20100521_113327_raw.all.mb56.gz 6.50MB Simrad multibeam vendor format
0145_20100521_131954_raw.all.mb56.gz 20.78MB Simrad multibeam vendor format
0146_20100521_141954_raw.all.mb56.gz 21.91MB Simrad multibeam vendor format
0147_20100521_151954_raw.all.mb56.gz 20.22MB Simrad multibeam vendor format
0148_20100521_161954_raw.all.mb56.gz 20.92MB Simrad multibeam vendor format
0149_20100521_171954_raw.all.mb56.gz 18.89MB Simrad multibeam vendor format
0150_20100521_181954_raw.all.mb56.gz 19.41MB Simrad multibeam vendor format
0151_20100521_191954_raw.all.mb56.gz 18.83MB Simrad multibeam vendor format
0152_20100521_201954_raw.all.mb56.gz 17.66MB Simrad multibeam vendor format
0153_20100521_211954_raw.all.mb56.gz 15.69MB Simrad multibeam vendor format
0154_20100521_221954_raw.all.mb56.gz 16.77MB Simrad multibeam vendor format
0155_20100521_231954_raw.all.mb56.gz 17.07MB Simrad multibeam vendor format
0156_20100522_001954_raw.all.mb56.gz 16.57MB Simrad multibeam vendor format
0157_20100522_011954_raw.all.mb56.gz 17.49MB Simrad multibeam vendor format
0158_20100522_021954_raw.all.mb56.gz 17.34MB Simrad multibeam vendor format
0159_20100522_031954_raw.all.mb56.gz 17.37MB Simrad multibeam vendor format
0160_20100522_041954_raw.all.mb56.gz 17.78MB Simrad multibeam vendor format
0161_20100522_051954_raw.all.mb56.gz 20.45MB Simrad multibeam vendor format
0162_20100522_061954_raw.all.mb56.gz 17.89MB Simrad multibeam vendor format
0163_20100522_071954_raw.all.mb56.gz 17.76MB Simrad multibeam vendor format
0164_20100522_081954_raw.all.mb56.gz 16.56MB Simrad multibeam vendor format
0165_20100522_091954_raw.all.mb56.gz 16.84MB Simrad multibeam vendor format
0166_20100522_101954_raw.all.mb56.gz 17.23MB Simrad multibeam vendor format
0167_20100522_111954_raw.all.mb56.gz 19.22MB Simrad multibeam vendor format
0168_20100522_190044_raw.all.mb56.gz 19.52MB Simrad multibeam vendor format
0169_20100522_200044_raw.all.mb56.gz 20.88MB Simrad multibeam vendor format
0170_20100522_210044_raw.all.mb56.gz 16.12MB Simrad multibeam vendor format
0171_20100522_220044_raw.all.mb56.gz 15.68MB Simrad multibeam vendor format
0172_20100522_230044_raw.all.mb56.gz 16.50MB Simrad multibeam vendor format
0173_20100523_000044_raw.all.mb56.gz 21.07MB Simrad multibeam vendor format
0174_20100523_010044_raw.all.mb56.gz 16.75MB Simrad multibeam vendor format
0175_20100523_020044_raw.all.mb56.gz 14.39MB Simrad multibeam vendor format
0176_20100523_030044_raw.all.mb56.gz 13.12MB Simrad multibeam vendor format
0177_20100523_040044_raw.all.mb56.gz 18.84MB Simrad multibeam vendor format
0178_20100523_050044_raw.all.mb56.gz 20.88MB Simrad multibeam vendor format
0179_20100523_060044_raw.all.mb56.gz 21.57MB Simrad multibeam vendor format
0180_20100523_070044_raw.all.mb56.gz 22.35MB Simrad multibeam vendor format
0181_20100523_080044_raw.all.mb56.gz 22.28MB Simrad multibeam vendor format
0182_20100523_090044_raw.all.mb56.gz 19.96MB Simrad multibeam vendor format
0183_20100523_100044_raw.all.mb56.gz 18.23MB Simrad multibeam vendor format
0184_20100523_110044_raw.all.mb56.gz 18.73MB Simrad multibeam vendor format
0185_20100523_183500_raw.all.mb56.gz 15.89MB Simrad multibeam vendor format
0186_20100525_191745_raw.all.mb56.gz 23.59MB Simrad multibeam vendor format
0187_20100525_201746_raw.all.mb56.gz 15.89MB Simrad multibeam vendor format
0188_20100525_205934_raw.all.mb56.gz 21.62MB Simrad multibeam vendor format
0189_20100525_215934_raw.all.mb56.gz 20.34MB Simrad multibeam vendor format
0190_20100525_225934_raw.all.mb56.gz 22.61MB Simrad multibeam vendor format
0191_20100525_235934_raw.all.mb56.gz 20.18MB Simrad multibeam vendor format
0192_20100526_005934_raw.all.mb56.gz 20.54MB Simrad multibeam vendor format
0193_20100526_015934_raw.all.mb56.gz 19.29MB Simrad multibeam vendor format
0194_20100526_025934_raw.all.mb56.gz 17.70MB Simrad multibeam vendor format
0195_20100526_035934_raw.all.mb56.gz 8.77MB Simrad multibeam vendor format
0196_20100526_042840_raw.all.mb56.gz 16.92MB Simrad multibeam vendor format
0197_20100526_052840_raw.all.mb56.gz 17.24MB Simrad multibeam vendor format
0198_20100526_062840_raw.all.mb56.gz 18.00MB Simrad multibeam vendor format
0199_20100526_072840_raw.all.mb56.gz 17.52MB Simrad multibeam vendor format
0200_20100526_082840_raw.all.mb56.gz 17.38MB Simrad multibeam vendor format
0201_20100526_092840_raw.all.mb56.gz 18.94MB Simrad multibeam vendor format
0202_20100526_102840_raw.all.mb56.gz 19.28MB Simrad multibeam vendor format
0203_20100526_112840_raw.all.mb56.gz 17.42MB Simrad multibeam vendor format
0204_20100526_121449_raw.all.mb56.gz 22.58MB Simrad multibeam vendor format
0205_20100526_131449_raw.all.mb56.gz 1.33MB Simrad multibeam vendor format
0206_20100526_132824_raw.all.mb56.gz 1.68MB Simrad multibeam vendor format
0207_20100526_151521_raw.all.mb56.gz 20.97MB Simrad multibeam vendor format
0208_20100526_161521_raw.all.mb56.gz 3.53MB Simrad multibeam vendor format
0209_20100526_181740_raw.all.mb56.gz 22.35MB Simrad multibeam vendor format
0210_20100526_191740_raw.all.mb56.gz 25.24MB Simrad multibeam vendor format
0211_20100526_201740_raw.all.mb56.gz 30.78MB Simrad multibeam vendor format
0212_20100526_211740_raw.all.mb56.gz 26.89MB Simrad multibeam vendor format
0213_20100526_221740_raw.all.mb56.gz 29.87MB Simrad multibeam vendor format
0214_20100526_231741_raw.all.mb56.gz 2.29MB Simrad multibeam vendor format
0215_20100526_234933_raw.all.mb56.gz 25.89MB Simrad multibeam vendor format
0216_20100527_004933_raw.all.mb56.gz 21.50MB Simrad multibeam vendor format
0217_20100527_014933_raw.all.mb56.gz 21.45MB Simrad multibeam vendor format
0218_20100527_024933_raw.all.mb56.gz 21.50MB Simrad multibeam vendor format
0219_20100527_034934_raw.all.mb56.gz 21.32MB Simrad multibeam vendor format
0220_20100527_044934_raw.all.mb56.gz 20.93MB Simrad multibeam vendor format
0221_20100527_054934_raw.all.mb56.gz 21.09MB Simrad multibeam vendor format
0222_20100527_064934_raw.all.mb56.gz 21.42MB Simrad multibeam vendor format
0223_20100527_074934_raw.all.mb56.gz 21.42MB Simrad multibeam vendor format
0224_20100527_084935_raw.all.mb56.gz 21.38MB Simrad multibeam vendor format
0225_20100527_094935_raw.all.mb56.gz 21.58MB Simrad multibeam vendor format
0226_20100527_104935_raw.all.mb56.gz 20.42MB Simrad multibeam vendor format
0227_20100527_114935_raw.all.mb56.gz 19.67MB Simrad multibeam vendor format
0228_20100527_124935_raw.all.mb56.gz 19.65MB Simrad multibeam vendor format
0229_20100527_134935_raw.all.mb56.gz 19.70MB Simrad multibeam vendor format
0230_20100527_144935_raw.all.mb56.gz 19.80MB Simrad multibeam vendor format
0231_20100527_154935_raw.all.mb56.gz 20.41MB Simrad multibeam vendor format
0232_20100527_164935_raw.all.mb56.gz 20.73MB Simrad multibeam vendor format
0233_20100527_174935_raw.all.mb56.gz 18.38MB Simrad multibeam vendor format
0234_20100527_184935_raw.all.mb56.gz 18.60MB Simrad multibeam vendor format
0235_20100527_194935_raw.all.mb56.gz 15.60MB Simrad multibeam vendor format
0236_20100527_204935_raw.all.mb56.gz 12.07MB Simrad multibeam vendor format
0237_20100527_214935_raw.all.mb56.gz 20.89MB Simrad multibeam vendor format
0238_20100527_224935_raw.all.mb56.gz 15.17MB Simrad multibeam vendor format
0239_20100527_234935_raw.all.mb56.gz 12.81MB Simrad multibeam vendor format
0240_20100528_004935_raw.all.mb56.gz 13.69MB Simrad multibeam vendor format
0241_20100528_014935_raw.all.mb56.gz 20.94MB Simrad multibeam vendor format
0242_20100528_024935_raw.all.mb56.gz 19.37MB Simrad multibeam vendor format
0243_20100528_034935_raw.all.mb56.gz 20.56MB Simrad multibeam vendor format
0244_20100528_044935_raw.all.mb56.gz 19.95MB Simrad multibeam vendor format
0245_20100528_054935_raw.all.mb56.gz 21.96MB Simrad multibeam vendor format
0246_20100528_064935_raw.all.mb56.gz 22.86MB Simrad multibeam vendor format
0247_20100528_074935_raw.all.mb56.gz 22.59MB Simrad multibeam vendor format
0248_20100528_084935_raw.all.mb56.gz 21.59MB Simrad multibeam vendor format
0249_20100528_094935_raw.all.mb56.gz 20.99MB Simrad multibeam vendor format
0250_20100528_104935_raw.all.mb56.gz 21.82MB Simrad multibeam vendor format
0251_20100528_114935_raw.all.mb56.gz 19.45MB Simrad multibeam vendor format
0252_20100528_124935_raw.all.mb56.gz 20.17MB Simrad multibeam vendor format
0253_20100528_134935_raw.all.mb56.gz 21.61MB Simrad multibeam vendor format
0254_20100528_144935_raw.all.mb56.gz 21.09MB Simrad multibeam vendor format
0255_20100528_154935_raw.all.mb56.gz 24.63MB Simrad multibeam vendor format
0256_20100528_164935_raw.all.mb56.gz 7.31MB Simrad multibeam vendor format
0257_20100528_171128_raw.all.mb56.gz 22.25MB Simrad multibeam vendor format
0258_20100528_181128_raw.all.mb56.gz 3.44MB Simrad multibeam vendor format
0259_20100528_181742_raw.all.mb56.gz 22.39MB Simrad multibeam vendor format
0260_20100528_191742_raw.all.mb56.gz 22.08MB Simrad multibeam vendor format
0261_20100528_201742_raw.all.mb56.gz 21.42MB Simrad multibeam vendor format
0262_20100528_211742_raw.all.mb56.gz 19.31MB Simrad multibeam vendor format
0263_20100528_221742_raw.all.mb56.gz 19.78MB Simrad multibeam vendor format
0264_20100528_231742_raw.all.mb56.gz 17.65MB Simrad multibeam vendor format
0265_20100529_001742_raw.all.mb56.gz 21.85MB Simrad multibeam vendor format
0266_20100529_011742_raw.all.mb56.gz 24.17MB Simrad multibeam vendor format
0267_20100529_021742_raw.all.mb56.gz 21.00MB Simrad multibeam vendor format
0268_20100529_031742_raw.all.mb56.gz 24.55MB Simrad multibeam vendor format
0269_20100529_041742_raw.all.mb56.gz 20.43MB Simrad multibeam vendor format
0270_20100529_051742_raw.all.mb56.gz 20.07MB Simrad multibeam vendor format
0271_20100529_061742_raw.all.mb56.gz 23.19MB Simrad multibeam vendor format
0272_20100529_071742_raw.all.mb56.gz 20.48MB Simrad multibeam vendor format
0273_20100529_081742_raw.all.mb56.gz 18.78MB Simrad multibeam vendor format
0274_20100529_091742_raw.all.mb56.gz 19.47MB Simrad multibeam vendor format
0275_20100529_101741_raw.all.mb56.gz 19.23MB Simrad multibeam vendor format
0276_20100529_111741_raw.all.mb56.gz 21.55MB Simrad multibeam vendor format
0277_20100529_121741_raw.all.mb56.gz 22.90MB Simrad multibeam vendor format
0278_20100529_131741_raw.all.mb56.gz 25.23MB Simrad multibeam vendor format
0279_20100529_141741_raw.all.mb56.gz 24.71MB Simrad multibeam vendor format
0280_20100529_151741_raw.all.mb56.gz 22.71MB Simrad multibeam vendor format
0281_20100529_161741_raw.all.mb56.gz 19.15MB Simrad multibeam vendor format
0282_20100529_171741_raw.all.mb56.gz 22.18MB Simrad multibeam vendor format
0283_20100529_181741_raw.all.mb56.gz 17.39MB Simrad multibeam vendor format
0284_20100529_191741_raw.all.mb56.gz 14.85MB Simrad multibeam vendor format
0285_20100529_201741_raw.all.mb56.gz 16.33MB Simrad multibeam vendor format
0286_20100529_211741_raw.all.mb56.gz 2.91MB Simrad multibeam vendor format
0287_20100529_213314_raw.all.mb56.gz 20.33MB Simrad multibeam vendor format
0288_20100529_223314_raw.all.mb56.gz 18.44MB Simrad multibeam vendor format
0289_20100529_233314_raw.all.mb56.gz 19.17MB Simrad multibeam vendor format
0290_20100530_003314_raw.all.mb56.gz 21.86MB Simrad multibeam vendor format
0291_20100530_013314_raw.all.mb56.gz 21.84MB Simrad multibeam vendor format
0292_20100530_023314_raw.all.mb56.gz 20.73MB Simrad multibeam vendor format
0293_20100530_033314_raw.all.mb56.gz 28.17MB Simrad multibeam vendor format
0294_20100530_043314_raw.all.mb56.gz 33.06MB Simrad multibeam vendor format
0295_20100530_053314_raw.all.mb56.gz 29.68MB Simrad multibeam vendor format
0296_20100530_063314_raw.all.mb56.gz 31.29MB Simrad multibeam vendor format
0297_20100530_073314_raw.all.mb56.gz 22.32MB Simrad multibeam vendor format
0298_20100530_083314_raw.all.mb56.gz 21.66MB Simrad multibeam vendor format
0299_20100530_093314_raw.all.mb56.gz 26.45MB Simrad multibeam vendor format
0300_20100530_103314_raw.all.mb56.gz 36.24MB Simrad multibeam vendor format
0301_20100530_113314_raw.all.mb56.gz 26.16MB Simrad multibeam vendor format
0302_20100530_132007_raw.all.mb56.gz 6.24MB Simrad multibeam vendor format
0303_20100530_135640_raw.all.mb56.gz 16.63MB Simrad multibeam vendor format
0304_20100530_150615_raw.all.mb56.gz 19.26MB Simrad multibeam vendor format
0305_20100530_160615_raw.all.mb56.gz 4.80MB Simrad multibeam vendor format
0306_20100530_190627_raw.all.mb56.gz 21.81MB Simrad multibeam vendor format
0307_20100530_200627_raw.all.mb56.gz 17.08MB Simrad multibeam vendor format
0308_20100530_210627_raw.all.mb56.gz 18.18MB Simrad multibeam vendor format
0309_20100530_220627_raw.all.mb56.gz 18.04MB Simrad multibeam vendor format
0310_20100530_230627_raw.all.mb56.gz 18.58MB Simrad multibeam vendor format
0311_20100531_000627_raw.all.mb56.gz 17.11MB Simrad multibeam vendor format
0312_20100531_010627_raw.all.mb56.gz 17.67MB Simrad multibeam vendor format
0313_20100531_020627_raw.all.mb56.gz 17.20MB Simrad multibeam vendor format
0314_20100531_030627_raw.all.mb56.gz 17.76MB Simrad multibeam vendor format
0315_20100531_040627_raw.all.mb56.gz 18.21MB Simrad multibeam vendor format
0316_20100531_050627_raw.all.mb56.gz 18.32MB Simrad multibeam vendor format
0317_20100531_060627_raw.all.mb56.gz 19.02MB Simrad multibeam vendor format
0318_20100531_070627_raw.all.mb56.gz 18.92MB Simrad multibeam vendor format
0319_20100531_080627_raw.all.mb56.gz 18.40MB Simrad multibeam vendor format
0320_20100531_090627_raw.all.mb56.gz 19.55MB Simrad multibeam vendor format
0321_20100531_100627_raw.all.mb56.gz 18.24MB Simrad multibeam vendor format
0322_20100531_110627_raw.all.mb56.gz 21.87MB Simrad multibeam vendor format
0323_20100531_120627_raw.all.mb56.gz 15.83MB Simrad multibeam vendor format
0324_20100602_165426_raw.all.mb56.gz 458.7KB Simrad multibeam vendor format
0325_20100603_002228_raw.all.mb56.gz 12.34MB Simrad multibeam vendor format
0326_20100603_030826_raw.all.mb56.gz 8.75MB Simrad multibeam vendor format
0327_20100603_050847_raw.all.mb56.gz 0.84MB Simrad multibeam vendor format
0328_20100603_073612_raw.all.mb56.gz 15.44MB Simrad multibeam vendor format
0329_20100603_083613_raw.all.mb56.gz 2.02MB Simrad multibeam vendor format
0330_20100603_091757_raw.all.mb56.gz 10.94MB Simrad multibeam vendor format
0331_20100603_101758_raw.all.mb56.gz 7.57MB Simrad multibeam vendor format
0332_20100603_111758_raw.all.mb56.gz 5.26MB Simrad multibeam vendor format
0333_20100603_162304_raw.all.mb56.gz 23.83MB Simrad multibeam vendor format
0334_20100603_172304_raw.all.mb56.gz 23.87MB Simrad multibeam vendor format
0335_20100603_182304_raw.all.mb56.gz 21.84MB Simrad multibeam vendor format
0336_20100603_192304_raw.all.mb56.gz 21.88MB Simrad multibeam vendor format
0337_20100603_202304_raw.all.mb56.gz 25.50MB Simrad multibeam vendor format
0338_20100603_212304_raw.all.mb56.gz 25.89MB Simrad multibeam vendor format
0339_20100603_222304_raw.all.mb56.gz 26.75MB Simrad multibeam vendor format
0340_20100603_232304_raw.all.mb56.gz 24.52MB Simrad multibeam vendor format
0341_20100604_002304_raw.all.mb56.gz 20.22MB Simrad multibeam vendor format
0342_20100604_012304_raw.all.mb56.gz 19.61MB Simrad multibeam vendor format
0343_20100604_022304_raw.all.mb56.gz 18.98MB Simrad multibeam vendor format
0344_20100604_032304_raw.all.mb56.gz 18.57MB Simrad multibeam vendor format
0345_20100604_042304_raw.all.mb56.gz 19.21MB Simrad multibeam vendor format
0346_20100604_052304_raw.all.mb56.gz 19.93MB Simrad multibeam vendor format
0347_20100604_062304_raw.all.mb56.gz 22.33MB Simrad multibeam vendor format
0348_20100604_072304_raw.all.mb56.gz 20.07MB Simrad multibeam vendor format
0349_20100604_082304_raw.all.mb56.gz 21.18MB Simrad multibeam vendor format
0350_20100604_092304_raw.all.mb56.gz 23.65MB Simrad multibeam vendor format
0351_20100604_102304_raw.all.mb56.gz 26.69MB Simrad multibeam vendor format
0352_20100604_112304_raw.all.mb56.gz 20.75MB Simrad multibeam vendor format
0353_20100604_122304_raw.all.mb56.gz 6.78MB Simrad multibeam vendor format
0354_20100604_191730_raw.all.mb56.gz 21.90MB Simrad multibeam vendor format
0355_20100604_201730_raw.all.mb56.gz 23.35MB Simrad multibeam vendor format
0356_20100604_211730_raw.all.mb56.gz 23.24MB Simrad multibeam vendor format
0357_20100604_221730_raw.all.mb56.gz 10.57MB Simrad multibeam vendor format
0358_20100604_224407_raw.all.mb56.gz 23.55MB Simrad multibeam vendor format
0359_20100604_234406_raw.all.mb56.gz 8.10MB Simrad multibeam vendor format
0360_20100605_201541_raw.all.mb56.gz 22.09MB Simrad multibeam vendor format
0361_20100605_211541_raw.all.mb56.gz 21.36MB Simrad multibeam vendor format
0362_20100605_221541_raw.all.mb56.gz 23.80MB Simrad multibeam vendor format
0363_20100605_231541_raw.all.mb56.gz 25.04MB Simrad multibeam vendor format
0364_20100606_001541_raw.all.mb56.gz 19.07MB Simrad multibeam vendor format
0365_20100606_011541_raw.all.mb56.gz 19.93MB Simrad multibeam vendor format
0366_20100606_021541_raw.all.mb56.gz 22.30MB Simrad multibeam vendor format
0367_20100606_031541_raw.all.mb56.gz 20.30MB Simrad multibeam vendor format
0368_20100606_041541_raw.all.mb56.gz 21.56MB Simrad multibeam vendor format
0369_20100606_051541_raw.all.mb56.gz 21.12MB Simrad multibeam vendor format
0370_20100606_061541_raw.all.mb56.gz 22.35MB Simrad multibeam vendor format
0371_20100606_071541_raw.all.mb56.gz 21.34MB Simrad multibeam vendor format
0372_20100606_081541_raw.all.mb56.gz 19.59MB Simrad multibeam vendor format
0373_20100606_091541_raw.all.mb56.gz 18.08MB Simrad multibeam vendor format
0374_20100606_101541_raw.all.mb56.gz 20.82MB Simrad multibeam vendor format
0375_20100606_111541_raw.all.mb56.gz 29.11MB Simrad multibeam vendor format
0376_20100606_121541_raw.all.mb56.gz 30.92MB Simrad multibeam vendor format
0377_20100606_190430_raw.all.mb56.gz 6.99MB Simrad multibeam vendor format

Metadata Files: 3

Files File Size Description
NBP1003_Multibeam.xml NGDC created ISO metadata
NBP1003.xml 26.4KB XML metadata file
mb_bag_info.tar.gz 10.7KB Additional cruise information